Weather History for Hebron, NE

Change the Weather History Date:

Monday, May 20, 2013

  Actual Average Record
Temperature  
Mean Temperature 67 °F -  
Max Temperature 78 °F 76 °F 93 °F (1975)
Min Temperature 57 °F 51 °F 36 °F (1968)
Cooling Degree Days 2    
Growing Degree Days 17 (Base 50)    
Moisture  
Dew Point 51 °F    
Average Humidity 59    
Maximum Humidity 86    
Minimum Humidity 31    
Precipitation  
Precipitation 0.13 in - - ()
Sea Level Pressure  
Sea Level Pressure 29.66 in    
Wind  
Wind Speed 11 mph (WSW)    
Max Wind Speed 21 mph    
Max Gust Speed 28 mph    
Visibility 10 miles    
Events      
Averages and records for this station are not official NWS values.
T = Trace of Precipitation, MM = Missing Value Source: NWS Daily Summary

Daily Weather History Graph

Daily Weather History Graph

Search for Another Location

Airport:

Trip Planner

Search our weather history database for the weather conditions in past years. The results will help you decide how hot, cold, wet, or windy it might be!

Date:

Astronomy

May. 20, 2013 Rise Set
Actual Time 6:10 AM CDT 8:44 PM CDT
Civil Twilight 5:38 AM CDT 9:15 PM CDT
Nautical Twilight 5:00 AM CDT 9:54 PM CDT
Astronomical Twilight 4:16 AM CDT 10:38 PM CDT
Moon 3:52 PM CDT (5/20) 3:06 AM CDT (5/20)
Length of Visible Light 15h 36m
Length of Day
14h 33m
Waxing Gibbous, 75% of the Moon is Illuminated
May 20
Waxing Gibbous
May 24
Full
May 31
Last Quarter
Jun 8
New
Jun 16
First Quarter

Hourly Weather History & Observations

Time (CDT) Temp. Dew Point Humidity Pressure Visibility Wind Dir Wind Speed Gust Speed Precip Events Conditions
12:15 AM 61.7 °F 53.1 °F 73% 29.59 in 10.0 mi WSW 10.4 mph - N/A   Clear
12:35 AM 61.2 °F 51.3 °F 70% 29.60 in 10.0 mi SW 10.4 mph - N/A   Clear
12:55 AM 60.4 °F 50.9 °F 71% 29.60 in 10.0 mi SW 6.9 mph - N/A   Clear
1:15 AM 59.9 °F 50.9 °F 72% 29.60 in 10.0 mi SW 9.2 mph - N/A   Clear
1:35 AM 59.9 °F 50.7 °F 72% 29.61 in 10.0 mi SSW 11.5 mph - N/A   Clear
1:55 AM 60.3 °F 50.4 °F 70% 29.60 in 10.0 mi SW 10.4 mph 17.3 mph N/A   Clear
2:15 AM 59.9 °F 50.4 °F 71% 29.59 in 10.0 mi WSW 13.8 mph 18.4 mph N/A   Clear
2:35 AM 59.9 °F 50.5 °F 71% 29.59 in 10.0 mi SW 12.7 mph - N/A   Clear
3:15 AM 58.3 °F 51.1 °F 77% 29.59 in 10.0 mi SW 10.4 mph 16.1 mph N/A   Clear
3:35 AM 58.3 °F 51.3 °F 77% 29.60 in 10.0 mi WSW 12.7 mph - N/A   Clear
3:55 AM 58.1 °F 51.4 °F 78% 29.60 in 10.0 mi SW 8.1 mph - N/A   Scattered Clouds
4:35 AM 58.1 °F 52.0 °F 80% 29.63 in 10.0 mi WSW 11.5 mph - N/A   Scattered Clouds
4:55 AM 58.5 °F 52.7 °F 81% 29.64 in 10.0 mi WNW 8.1 mph - N/A   Mostly Cloudy
5:15 AM 58.5 °F 52.9 °F 82% 29.65 in 10.0 mi WSW 4.6 mph - N/A   Overcast
5:35 AM 58.6 °F 53.4 °F 83% 29.66 in 10.0 mi West 6.9 mph - N/A   Mostly Cloudy
5:55 AM 57.4 °F 52.7 °F 84% 29.66 in 10.0 mi WSW 5.8 mph - N/A   Clear
6:15 AM 57.2 °F 52.7 °F 85% 29.67 in 10.0 mi West 5.8 mph - N/A   Clear
6:35 AM 57.2 °F 52.7 °F 85% 29.68 in 10.0 mi WSW 4.6 mph - N/A   Clear
6:55 AM 57.2 °F 53.1 °F 86% 29.69 in 10.0 mi WSW 5.8 mph - N/A   Clear
7:15 AM 58.5 °F 54.3 °F 86% 29.69 in 10.0 mi WSW 5.8 mph - N/A   Clear
7:35 AM 59.9 °F 55.0 °F 84% 29.69 in 10.0 mi WSW 4.6 mph - N/A   Clear
7:55 AM 61.0 °F 54.9 °F 80% 29.70 in 10.0 mi WSW 8.1 mph - N/A   Clear
8:15 AM 62.4 °F 55.4 °F 78% 29.71 in 10.0 mi WSW 5.8 mph - N/A   Clear
8:35 AM 63.9 °F 54.9 °F 72% 29.71 in 10.0 mi West 6.9 mph - N/A   Clear
9:15 AM 65.7 °F 55.2 °F 69% 29.71 in 10.0 mi WSW 8.1 mph - N/A   Clear
9:35 AM 66.4 °F 55.0 °F 67% 29.71 in 10.0 mi West 9.2 mph - N/A   Clear
9:55 AM 67.5 °F 55.2 °F 65% 29.71 in 10.0 mi WSW 11.5 mph - N/A   Clear
10:35 AM 68.9 °F 55.4 °F 62% 29.70 in 10.0 mi West 10.4 mph 17.3 mph N/A   Clear
10:55 AM 69.4 °F 55.2 °F 60% 29.71 in 10.0 mi West 10.4 mph 17.3 mph N/A   Scattered Clouds
11:15 AM 69.6 °F 54.7 °F 59% 29.71 in 10.0 mi SW 10.4 mph 17.3 mph N/A   Scattered Clouds
11:35 AM 71.1 °F 54.7 °F 56% 29.71 in 10.0 mi WSW 12.7 mph 18.4 mph N/A   Scattered Clouds
11:55 AM 72.0 °F 55.0 °F 55% 29.70 in 10.0 mi WSW 15.0 mph 19.6 mph N/A   Scattered Clouds
12:15 PM 72.5 °F 54.3 °F 53% 29.70 in 10.0 mi SW 12.7 mph 19.6 mph N/A   Scattered Clouds
12:35 PM 73.2 °F 55.2 °F 53% 29.70 in 10.0 mi SW 13.8 mph 21.9 mph N/A   Mostly Cloudy
12:55 PM 73.9 °F 55.2 °F 52% 29.69 in 10.0 mi SW 15.0 mph 19.6 mph N/A   Scattered Clouds
1:15 PM 73.8 °F 54.7 °F 51% 29.69 in 10.0 mi SSW 11.5 mph 20.7 mph N/A   Scattered Clouds
1:55 PM 75.6 °F 54.5 °F 48% 29.68 in 10.0 mi SW 16.1 mph 23.0 mph N/A   Mostly Cloudy
2:15 PM 75.7 °F 53.6 °F 46% 29.67 in 10.0 mi SW 20.7 mph 27.6 mph N/A   Scattered Clouds
2:35 PM 76.6 °F 50.4 °F 40% 29.67 in 10.0 mi WSW 16.1 mph 23.0 mph N/A   Clear
2:55 PM 75.7 °F 48.9 °F 39% 29.67 in 10.0 mi SW 16.1 mph 21.9 mph N/A   Scattered Clouds
3:15 PM 77.4 °F 49.6 °F 38% 29.66 in 10.0 mi SW 17.3 mph 25.3 mph N/A   Scattered Clouds
3:35 PM 77.4 °F 49.8 °F 38% 29.66 in 10.0 mi SW 17.3 mph 21.9 mph N/A   Scattered Clouds
3:55 PM 76.8 °F 48.9 °F 37% 29.65 in 10.0 mi WSW 12.7 mph 24.2 mph N/A   Scattered Clouds
4:15 PM 77.0 °F 47.7 °F 35% 29.65 in 10.0 mi WSW 12.7 mph 24.2 mph N/A   Mostly Cloudy
4:35 PM 76.1 °F 47.3 °F 36% 29.64 in 10.0 mi WSW 13.8 mph 23.0 mph N/A   Mostly Cloudy
4:55 PM 77.0 °F 47.8 °F 36% 29.63 in 10.0 mi WSW 18.4 mph 23.0 mph N/A   Mostly Cloudy
5:15 PM 77.5 °F 45.1 °F 32% 29.63 in 10.0 mi WSW 18.4 mph 27.6 mph N/A   Scattered Clouds
5:35 PM 75.9 °F 46.2 °F 35% 29.62 in 10.0 mi WSW 17.3 mph 24.2 mph N/A   Scattered Clouds
5:55 PM 75.9 °F 45.0 °F 33% 29.62 in 10.0 mi West 15.0 mph 24.2 mph N/A   Mostly Cloudy
6:15 PM 76.1 °F 43.7 °F 31% 29.61 in 10.0 mi West 19.6 mph 25.3 mph N/A   Scattered Clouds
6:35 PM 75.6 °F 44.1 °F 32% 29.61 in 10.0 mi West 16.1 mph 23.0 mph N/A   Clear
6:55 PM 75.2 °F 43.3 °F 32% 29.61 in 10.0 mi West 11.5 mph 19.6 mph N/A   Clear
7:15 PM 74.3 °F 43.7 °F 33% 29.61 in 10.0 mi West 16.1 mph 26.5 mph N/A   Clear
7:35 PM 72.7 °F 44.4 °F 36% 29.63 in 10.0 mi West 18.4 mph 24.2 mph N/A   Clear
7:55 PM 71.6 °F 45.0 °F 38% 29.64 in 10.0 mi West 15.0 mph 23.0 mph N/A   Clear
8:15 PM 69.6 °F 43.3 °F 39% 29.65 in 10.0 mi West 16.1 mph 24.2 mph N/A   Scattered Clouds
8:35 PM 68.0 °F 43.5 °F 41% 29.66 in 10.0 mi West 16.1 mph 21.9 mph N/A   Clear
9:15 PM 64.4 °F 46.4 °F 52% 29.66 in 10.0 mi West 11.5 mph - N/A   Clear
9:35 PM 64.2 °F 46.9 °F 53% 29.67 in 10.0 mi West 12.7 mph 18.4 mph N/A   Clear
9:55 PM 62.6 °F 49.3 °F 62% 29.69 in 10.0 mi West 10.4 mph 17.3 mph N/A   Clear
10:15 PM 61.9 °F 50.0 °F 65% 29.69 in 10.0 mi West 10.4 mph 16.1 mph N/A   Clear
10:35 PM 61.2 °F 50.2 °F 67% 29.69 in 10.0 mi West 9.2 mph - N/A   Clear
10:55 PM 61.7 °F 50.7 °F 67% 29.70 in 10.0 mi West 10.4 mph - N/A   Mostly Cloudy
11:15 PM 62.6 °F 50.7 °F 65% 29.70 in 10.0 mi West 12.7 mph 17.3 mph N/A   Overcast
11:35 PM 61.7 °F 51.3 °F 69% 29.71 in 10.0 mi West 11.5 mph - N/A   Mostly Cloudy
11:55 PM 61.0 °F 51.4 °F 71% 29.71 in 10.0 mi West 8.1 mph - N/A   Scattered Clouds